Voltar ao catálogo

OPS 4682 DEB

AtivoPO
NORAD 38388·DEBRIS·🇺🇸 United States

Lançado Apr 3, 1965 de Vandenberg Space Force Base

Loading…

Próximas Passagens (próximas 24 horas)

TLE

EnvelhecendoSource: Space-Track

Época: Sep 9, 2026, 08:31 UTC

1 38388U 65027CR  26252.35518587  .00001690  00000-0  55233-2 0  9995
2 38388  90.2751  25.1431 0038111 130.0519 230.3956 13.00637437675005

Acompanhe OPS 4682 DEB em tempo real com AllMySat

Download on the App Store